Weather in Santo Domingo

Ecuador     0°14′03″N   79°13′24″W
temp.,
°C
wind,
m/s
gust,
m/s
humid.,
%
clouds,
%
prec.,
mm/h
press.,
hPa
HPBL,
m
19 april, mon
mon1901:00+21e1398100 9.6 101283
04:00+21sse1197100 6.7 101218
07:00+21ene1195100 6.9 101333
10:00+24wsw1184100 0.0 1015501
13:00+28w117099 0.6 1012908
16:00+25wsw1185100 2.0 1010162
19:00+22se1194100 5.9 101220
22:00+22s2393100 0.0 101367
20 april, tue
tue2001:00+21e119581 0.0 101213
04:00+20se009696 0.0 101212
07:00+21e119484 0.0 101353
10:00+26w117251 0.0 1014751
13:00+30w215668 0.1 10111554
16:00+27sw237172 0.5 1009579
19:00+22wnw1195100 2.7 101111
22:00+22s0196100 1.1 101313
21 april, wed
wed2101:00+21ne1299100 4.1 101397
04:00+21n0199100 3.3 101272
07:00+22e019779 3.6 101372
10:00+26w118085 0.1 1014729
13:00+27wnw2266100 0.3 10111267
16:00+26nnw127567 0.5 1009367
19:00+23nnw119492 1.8 101125
22:00+21nne119778 0.2 101314
22 april, thu
thu2201:00+21ese009971 0.2 101216
04:00+21wsw119984 0.0 101125
07:00+22sw019896 0.1 1012101
10:00+22wsw129593 0.6 1014251
13:00+28wsw227247 1.3 1010918
16:00+26w117918 4.4 1008605
19:00+22wsw119699 10.9 101111
22:00+21w119986 3.3 101319
23 april, fri
fri2301:00+21wnw1299100 6.1 1013128
04:00+21nne0099100 2.2 101177
07:00+21sw139984 3.3 1013167
10:00+24wsw228897 0.1 1013537
13:00+29w216573 0.3 10101187
16:00+25w138699 0.6 1008122
19:00+23n009370 2.9 101011
22:00+22n149792 0.9 1012161